Weather History for KLGA - January, 2015

Change the Weather History Date:

Thursday, January 22, 2015

  Actual Average Record
Temperature  
Mean Temperature 35 °F 33 °F  
Max Temperature 39 °F 39 °F 57 °F (1959)
Min Temperature 31 °F 26 °F 5 °F (2005)
Degree Days  
Heating Degree Days 30 32  
Month to date heating degree days 758 700  
Since 1 July heating degree days 2261 2306  
Cooling Degree Days 0 0  
Month to date cooling degree days 0 0  
Year to date cooling degree days 0 0  
Moisture  
Dew Point 21 °F    
Average Humidity 63    
Maximum Humidity 78    
Minimum Humidity 47    
Precipitation  
Precipitation T in 0.10 in 1.25 in (1987)
Month to date precipitation 3.52 2.28  
Year to date precipitation 3.52 2.28  
Snow  
Snow T in 0.20 in 11.30 in (1987)
Month to date snowfall 2.8 5.2  
Since 1 July snowfall 4.5 10.7  
Snow Depth 0.00 in    
Sea Level Pressure  
Sea Level Pressure 30.22 in    
Wind  
Wind Speed 8 mph (NNW)    
Max Wind Speed 20 mph    
Max Gust Speed 24 mph    
Visibility 10 miles    
Events Snow    
T = Trace of Precipitation, MM = Missing Value Source: NWS Daily Summary

Daily Weather History Graph

Daily Weather History Graph

Search for Another Location

Airport or City:

Trip Planner

Search our weather history database for the weather conditions in past years. The results will help you decide how hot, cold, wet, or windy it might be!

Date:

Astronomy

Jan. 22, 2015 Rise Set
Actual Time 7:14 AM EST 5:00 PM EST
Civil Twilight 6:44 AM EST 5:30 PM EST
Nautical Twilight 6:10 AM EST 6:03 PM EST
Astronomical Twilight 5:38 AM EST 6:36 PM EST
Moon 8:23 AM EST (1/22) 7:58 PM EST (1/22)
Length of Visible Light 10h 45m
Length of Day
9h 46m
Waxing Crescent, 7% of the Moon is Illuminated
Jan 22
Waxing Crescent
Jan 26
First Quarter
Feb 3
Full
Feb 11
Last Quarter
Feb 18
New

Hourly Weather History & Observations

Time (EST) Temp. Windchill Dew Point Humidity Pressure Visibility Wind Dir Wind Speed Gust Speed Precip Events Conditions
12:51 AM 33.1 °F - 16.0 °F 50% 30.15 in 10.0 mi Calm Calm - N/A   Overcast
1:51 AM 33.1 °F 30.0 °F 19.0 °F 56% 30.16 in 10.0 mi NE 3.5 mph - N/A   Overcast
2:34 AM 33.8 °F 30.8 °F 19.4 °F 56% 30.16 in 10.0 mi ENE 3.5 mph - N/A   Overcast
2:51 AM 33.1 °F - 19.0 °F 56% 30.16 in 10.0 mi Calm Calm - N/A   Overcast
3:51 AM 32.0 °F 28.7 °F 19.0 °F 59% 30.16 in 10.0 mi NNE 3.5 mph - N/A   Overcast
4:51 AM 32.0 °F 28.7 °F 18.0 °F 56% 30.16 in 10.0 mi NE 3.5 mph - N/A   Overcast
5:34 AM 32.0 °F 27.5 °F 21.2 °F 64% 30.17 in 10.0 mi North 4.6 mph - 0.00 in Snow Light Snow
5:51 AM 32.0 °F 28.7 °F 19.9 °F 61% 30.17 in 9.0 mi NNE 3.5 mph - 0.00 in Snow Light Snow
6:51 AM 30.9 °F 27.5 °F 23.0 °F 72% 30.19 in 9.0 mi North 3.5 mph - 0.00 in   Overcast
7:17 AM 30.2 °F 25.4 °F 23.0 °F 75% 30.19 in 10.0 mi North 4.6 mph - N/A   Overcast
7:51 AM 30.9 °F 26.2 °F 23.0 °F 72% 30.20 in 10.0 mi North 4.6 mph - N/A   Overcast
8:51 AM 30.9 °F 25.2 °F 24.1 °F 76% 30.21 in 10.0 mi North 5.8 mph - N/A   Overcast
9:19 AM 30.2 °F 23.4 °F 23.0 °F 75% 30.22 in 10.0 mi North 6.9 mph - N/A   Overcast
9:51 AM 33.1 °F 25.5 °F 21.9 °F 64% 30.23 in 10.0 mi NW 9.2 mph - N/A   Mostly Cloudy
10:51 AM 33.1 °F 25.5 °F 23.0 °F 66% 30.24 in 7.0 mi NW 9.2 mph - N/A   Overcast
11:51 AM 33.1 °F 26.1 °F 21.9 °F 64% 30.23 in 10.0 mi NW 8.1 mph - N/A   Mostly Cloudy
12:51 PM 35.1 °F 29.3 °F 21.9 °F 59% 30.22 in 10.0 mi NW 6.9 mph - N/A   Mostly Cloudy
1:51 PM 37.9 °F 32.7 °F 21.9 °F 53% 30.20 in 10.0 mi NW 6.9 mph - N/A   Scattered Clouds
2:51 PM 39.0 °F 33.4 °F 23.0 °F 53% 30.21 in 10.0 mi NNW 8.1 mph - N/A   Scattered Clouds
3:51 PM 39.0 °F 32.8 °F 23.0 °F 53% 30.22 in 10.0 mi NNW 9.2 mph - N/A   Scattered Clouds
4:51 PM 37.9 °F 32.7 °F 24.1 °F 57% 30.25 in 10.0 mi NNW 6.9 mph - N/A   Scattered Clouds
5:51 PM 37.0 °F 28.9 °F 24.1 °F 59% 30.27 in 10.0 mi NNW 12.7 mph - N/A   Partly Cloudy
6:51 PM 36.0 °F 27.1 °F 24.1 °F 62% 30.31 in 10.0 mi NW 13.8 mph - N/A   Partly Cloudy
7:51 PM 34.0 °F 24.2 °F 21.0 °F 59% 30.31 in 10.0 mi NNW 15.0 mph - N/A   Partly Cloudy
8:51 PM 33.1 °F 22.6 °F 19.0 °F 56% 30.32 in 10.0 mi NW 16.1 mph - N/A   Clear
9:51 PM 32.0 °F 21.6 °F 17.1 °F 54% 30.32 in 10.0 mi NW 15.0 mph 20.7 mph N/A   Clear
10:51 PM 32.0 °F 22.5 °F 16.0 °F 52% 30.33 in 10.0 mi NW 12.7 mph - N/A   Clear
11:51 PM 30.9 °F 18.7 °F 14.0 °F 50% 30.32 in 10.0 mi NW 19.6 mph 24.2 mph N/A   Clear